Theta_e
318 319 319 320 321 322 323 325 327 327 327 329 330 329 329 329 328 321 315 325 327 331 328 323 319 320 323 320 318 317 305 301 302 301 303 308 306 307 308 311 311 313 316 326 330
317 318 317 319 321 322 323 324 323 323 320 325 329 327 326 326 319 315 328 333 333 332 320 317 314 318 316 316 313 309 303 306 310 308 304 307 307 306 305 308 308 313 323 330 329
316 316 317 318 321 322 322 322 322 321 321 318 327 326 325 322 311 312 331 333 329 329 324 321 320 317 313 314 313 310 305 312 308 305 305 307 305 305 304 304 307 310 321 326 326
316 317 317 318 319 320 321 322 322 320 319 317 325 324 322 319 302 319 329 329 330 322 320 322 319 313 311 307 314 308 311 311 307 306 304 303 305 302 303 302 307 310 323 326 324
315 316 317 318 318 319 321 321 321 320 318 319 320 323 316 307 310 321 329 327 322 318 316 317 315 312 308 309 313 310 312 309 306 305 304 306 302 301 301 304 307 308 322 324 324
314 314 316 317 316 318 319 319 320 319 317 317 317 322 314 303 319 319 320 319 316 316 318 316 315 316 312 310 310 311 310 308 305 304 304 303 304 303 307 305 305 307 314 321 323
313 314 315 316 315 315 316 317 319 319 318 318 317 319 310 310 320 318 318 315 314 314 315 318 318 315 315 310 313 312 304 304 303 303 303 304 301 302 307 306 306 307 307 314 320
312 313 314 315 316 316 316 316 317 318 318 318 315 317 305 319 320 317 316 310 314 311 313 315 314 317 314 314 310 305 306 298 304 305 303 304 298 308 310 307 307 306 305 310 315
311 311 312 314 315 315 315 314 315 317 318 317 309 312 304 319 315 317 314 308 311 312 311 314 314 310 308 304 301 303 297 300 304 307 302 301 298 306 309 308 307 305 307 307 311
311 311 311 313 314 314 314 315 313 314 314 314 309 306 307 307 315 315 314 311 308 308 305 306 305 304 302 302 295 297 299 302 301 303 303 297 298 303 300 301 302 304 307 308 308
310 310 311 312 313 313 311 308 301 300 304 298 301 305 305 315 318 311 312 309 308 305 298 301 297 295 299 303 306 303 301 301 303 304 300 299 299 303 305 301 300 302 303 303 305
310 310 311 312 312 310 308 300 301 304 294 301 301 309 310 314 307 309 311 303 302 297 299 296 294 300 304 305 304 301 299 298 301 301 299 298 298 302 305 305 305 304 304 306 307
309 310 311 312 311 307 303 303 310 308 295 297 300 304 308 312 306 305 308 306 301 297 298 295 298 301 302 301 300 299 297 297 297 298 296 294 292 296 301 304 305 307 308 309 308
309 311 310 310 301 303 299 306 307 309 288 291 299 306 308 310 303 311 312 306 301 297 298 297 302 300 300 299 301 296 302 301 296 293 288 293 283 292 296 298 302 304 302 305 307
310 310 309 307 302 297 302 306 308 304 275 294 300 312 308 304 304 303 311 306 298 298 298 294 298 299 297 299 302 298 302 298 295 292 291 291 286 290 295 294 298 300 302 303 304
308 309 306 302 301 301 303 302 306 286 277 289 296 298 299 302 303 303 303 305 306 299 300 297 302 301 300 301 302 301 298 296 292 290 284 290 289 288 292 296 297 299 300 301 302
307 307 303 303 295 303 302 294 286 279 288 283 288 296 297 296 298 298 295 296 294 290 290 294 296 297 300 297 298 297 292 282 282 281 281 288 287 291 296 297 296 296 297 297 297
305 306 304 302 302 298 293 285 280 286 284 289 293 295 292 297 296 296 294 293 297 295 290 286 284 293 297 296 294 294 292 283 278 279 281 284 282 289 298 297 297 300 298 297 296
300 298 298 299 299 295 284 275 283 287 287 289 292 290 288 295 294 294 293 293 296 297 290 288 287 296 297 299 297 292 290 293 283 277 279 283 288 294 296 296 295 295 296 297 298
295 296 294 299 299 288 282 278 285 292 292 293 288 291 286 290 291 292 292 296 295 298 297 292 284 293 291 295 294 293 295 286 287 278 275 282 283 286 291 294 296 296 296 297 297
296 289 295 301 295 284 277 282 287 294 296 293 291 289 288 290 292 291 292 295 298 297 297 295 289 286 290 290 289 289 289 290 291 286 279 278 283 293 294 296 295 295 294 295 295
293 284 296 296 282 284 282 287 294 293 298 297 296 294 290 293 291 291 291 294 300 300 293 294 288 282 287 290 295 293 291 292 286 283 285 284 283 294 293 295 294 293 295 295 294
286 287 296 293 278 283 286 290 294 293 295 295 294 296 296 294 289 292 294 299 300 298 293 292 286 280 282 287 290 291 293 294 292 287 283 280 284 295 296 292 294 294 294 295 295
288 282 288 288 286 283 284 287 290 297 296 297 296 297 295 294 295 292 293 297 301 300 297 295 288 284 280 284 286 285 291 293 292 283 283 284 288 290 291 291 292 292 292 293 294
289 284 285 282 284 283 284 290 290 290 294 298 294 296 294 290 292 291 294 296 299 298 295 292 284 287 287 289 289 288 290 291 290 291 286 288 288 292 292 292 293 294 293 293 294
286 284 285 285 284 284 285 288 289 288 292 292 293 296 296 292 293 290 293 294 293 294 293 294 283 284 281 288 287 285 289 290 290 292 291 290 288 293 295 293 292 294 294 294 294
291 291 288 285 284 283 284 288 289 292 293 295 296 295 294 295 298 298 299 296 296 293 291 291 284 282 277 284 282 278 285 287 290 291 291 287 292 294 292 292 293 294 294 294 295
Wind_Speed
17 18 18 19 17 17 18 17 12 11 6 13 12 12 11 10 6 10 14 10 11 7 1 7 7 5 3 3 3 3 3 5 2 4 3 7 6 2 0 6 1 4 5 15 18
17 17 17 20 19 17 17 18 12 11 4 10 15 15 12 12 7 16 10 17 8 10 7 13 12 9 4 4 2 4 3 4 2 8 4 7 6 8 5 8 5 8 11 16 16
18 19 19 18 17 18 18 18 14 13 11 3 14 16 16 11 2 9 18 11 12 10 12 13 12 9 6 1 4 4 5 4 3 7 3 6 4 2 5 7 8 13 14 15 16
19 18 17 15 15 18 19 18 16 14 14 4 14 18 18 13 13 10 21 14 14 13 13 15 11 10 7 6 6 3 8 5 6 2 2 5 6 4 5 5 5 9 16 15 14
17 16 16 14 15 17 17 17 16 14 12 14 15 21 9 7 13 5 19 18 13 11 17 16 15 11 10 7 5 8 7 4 7 4 2 5 4 0 6 4 10 6 14 15 14
16 16 15 16 12 12 18 16 18 15 14 15 15 26 10 22 7 4 14 12 13 17 17 13 11 7 6 7 9 9 7 7 4 6 3 1 3 3 8 7 7 7 11 12 13
17 16 14 14 15 14 12 14 15 18 17 16 13 21 14 21 12 11 13 12 14 15 16 16 7 7 7 3 3 6 9 8 8 7 3 5 6 8 8 6 7 9 7 9 12
17 17 14 16 15 15 15 14 13 17 14 11 15 16 11 8 9 16 14 4 5 1 4 3 5 3 4 3 5 11 7 7 12 10 5 6 2 8 12 9 10 8 10 10 9
18 16 16 15 16 14 16 9 10 14 16 13 7 16 16 11 13 18 18 14 7 4 6 8 6 2 3 10 7 15 6 7 4 15 7 8 2 4 3 3 8 8 8 11 10
19 18 18 17 16 13 17 13 5 13 16 10 10 17 13 18 14 13 5 17 9 11 7 4 3 5 5 12 13 9 7 7 12 10 9 9 9 5 3 3 4 6 8 7 10
19 19 18 18 18 16 7 3 4 8 14 11 18 23 13 20 16 15 17 16 11 5 9 2 6 13 17 16 11 12 12 12 6 9 6 8 9 10 10 10 10 8 8 8 7
20 18 19 18 19 8 7 7 16 5 8 24 27 25 15 22 20 23 25 13 14 17 11 7 16 14 13 13 12 10 12 13 5 9 3 5 12 8 9 9 10 10 10 10 8
19 18 19 18 16 6 12 19 6 9 9 15 29 31 25 31 23 27 29 15 21 17 17 16 8 11 15 12 14 5 6 5 5 6 0 4 11 12 11 17 11 10 10 11 10
18 16 17 17 5 9 15 14 8 12 10 12 24 17 22 21 18 24 23 23 8 19 13 3 8 18 17 16 13 13 7 4 9 6 3 6 6 7 6 5 15 13 9 9 10
15 17 21 19 3 6 4 8 15 15 12 12 23 12 20 26 27 28 27 13 23 19 11 11 13 19 18 16 16 6 7 8 5 2 5 5 3 7 7 7 9 10 11 11 10
17 20 19 7 3 6 4 15 18 19 16 10 12 16 30 17 30 34 18 5 18 24 15 8 11 9 10 9 7 8 11 8 6 1 6 9 7 5 6 9 7 6 8 8 9
20 22 16 7 4 5 0 7 22 21 8 8 14 17 36 16 24 39 22 20 18 25 18 9 14 6 3 10 5 10 14 3 1 2 7 5 6 11 7 2 1 4 2 5 3
18 17 11 6 6 8 4 5 15 27 15 6 23 26 24 31 28 29 28 24 19 21 18 10 4 16 12 14 10 14 11 7 8 7 4 1 8 7 9 2 2 7 7 2 4
13 4 4 6 10 7 3 5 13 29 9 15 29 32 10 23 16 25 24 29 25 27 14 14 4 14 20 15 16 15 13 3 7 2 4 6 7 8 8 8 5 6 4 6 7
6 4 4 8 7 5 3 7 12 18 19 27 22 19 17 25 25 25 24 22 21 22 7 12 10 11 5 7 3 13 10 5 1 7 6 5 6 8 4 8 10 7 8 6 6
4 4 6 9 4 2 5 10 10 19 23 32 20 12 13 22 30 28 30 23 28 23 5 19 7 6 7 7 16 7 11 5 6 4 6 1 7 7 12 11 10 8 8 8 6
4 5 7 5 2 5 13 12 15 26 21 12 23 19 23 30 26 19 29 22 29 23 20 4 8 9 7 4 6 4 9 6 6 5 2 4 8 6 5 7 11 9 8 6 2
3 4 7 5 4 8 6 6 17 27 26 19 20 12 19 25 17 4 22 17 25 23 20 11 6 12 6 5 4 14 15 15 2 4 7 7 10 6 8 9 7 8 8 7 6
3 4 3 3 3 6 9 12 14 24 26 25 28 20 27 23 11 13 21 18 29 28 13 8 6 7 8 8 12 8 16 17 8 3 5 9 20 1 9 9 7 6 4 6 4
2 2 1 3 5 7 8 12 26 19 2 24 20 28 35 18 19 11 21 20 21 20 11 7 6 6 9 13 16 21 24 19 20 21 14 23 18 19 5 5 6 7 4 2 6
4 3 2 3 6 10 4 12 26 14 14 16 19 32 27 19 21 34 32 29 32 20 19 10 5 8 5 8 8 14 16 21 24 28 19 14 21 11 9 7 5 6 8 9 9
1 2 3 2 4 4 3 6 23 20 7 9 32 30 31 16 16 16 17 10 23 26 17 10 7 6 4 8 8 2 24 21 22 23 27 20 36 5 5 5 6 8 9 9 8
Wind_Direction
241 243 246 248 240 236 239 241 228 214 230 226 180 156 164 165 170 199 209 210 222 182 6 161 194 189 253 267 290 285 276 194 205 324 72 146 138 26 324 122 79 66 59 123 140
237 234 246 252 243 235 233 234 219 218 159 309 198 151 148 135 186 219 209 213 161 159 197 184 195 175 202 211 218 220 235 258 221 172 169 180 187 141 169 128 125 96 102 123 144
230 238 245 255 239 233 224 226 229 213 210 354 223 157 144 142 192 226 215 197 166 182 212 205 185 187 204 242 198 200 237 224 64 67 117 173 137 40 213 172 157 162 147 146 160
226 227 239 240 244 238 227 221 219 209 209 213 245 156 151 170 227 190 195 184 170 188 220 216 195 182 180 208 230 205 229 316 105 99 74 177 122 181 258 132 89 81 150 148 169
225 230 232 239 241 233 219 213 219 207 193 213 278 154 165 211 218 20 178 171 175 190 214 200 192 192 192 198 197 210 238 166 116 137 221 47 190 9 215 157 118 104 150 161 167
222 234 227 219 228 240 218 216 222 209 199 228 280 155 210 224 150 154 168 166 177 186 205 190 193 181 211 201 191 191 233 143 157 173 133 217 204 137 232 122 122 153 166 168 172
219 229 225 220 218 225 217 230 219 211 199 196 291 174 231 205 165 164 160 180 184 183 195 195 192 179 126 209 218 268 158 161 192 165 200 181 266 227 248 154 178 171 200 180 182
215 220 224 218 218 222 221 219 229 212 211 209 341 178 227 189 150 160 150 122 190 123 211 65 11 151 192 129 145 244 191 180 189 167 185 166 227 235 211 219 224 212 187 181 196
215 213 227 228 213 217 198 204 221 234 209 239 269 213 198 152 166 164 151 155 145 47 107 63 53 199 176 162 124 220 176 205 197 177 134 189 228 262 243 262 217 203 232 177 182
210 212 224 225 214 213 205 227 251 231 225 240 228 225 145 186 159 160 139 140 137 114 72 86 38 180 206 201 187 163 183 201 206 174 200 185 235 263 177 169 241 258 263 245 182
212 215 221 218 212 213 197 194 208 233 216 228 258 207 156 179 138 168 145 127 125 149 143 192 163 202 187 201 225 170 172 216 231 131 156 234 240 241 224 195 202 218 258 261 226
213 217 218 214 210 211 194 213 214 105 240 221 239 203 177 160 167 164 147 131 157 165 137 128 212 197 199 216 211 230 177 195 108 95 132 271 276 266 250 233 194 197 214 228 235
214 221 209 205 204 208 220 230 228 190 252 238 221 229 196 171 172 166 160 139 168 153 171 172 178 206 213 200 216 213 188 216 145 112 332 302 281 238 229 232 231 220 210 214 219
220 211 200 176 161 212 229 232 199 184 249 235 217 202 178 178 184 161 179 142 161 170 157 184 207 187 209 208 190 199 193 73 109 105 208 147 283 318 304 231 219 227 225 221 219
210 200 168 168 188 180 170 254 195 189 223 212 190 155 159 184 132 168 172 177 167 153 148 181 201 179 203 202 180 204 152 105 87 330 321 234 269 266 222 248 237 204 204 214 215
184 168 159 161 195 224 276 339 164 207 214 192 162 183 163 180 157 160 168 165 157 148 166 141 178 208 199 183 169 121 102 79 61 71 256 213 213 230 225 222 217 208 204 207 206
172 173 176 143 186 103 278 309 184 201 137 226 159 172 169 177 151 164 170 167 157 144 160 132 173 116 210 150 86 137 138 97 156 187 225 56 210 229 283 270 111 333 160 148 235
176 181 197 185 96 58 55 247 198 188 188 216 161 165 174 165 159 158 163 166 165 161 141 144 181 162 188 188 170 184 160 146 187 186 210 53 239 251 218 316 163 205 228 243 336
174 176 172 136 108 104 107 257 208 174 159 169 159 163 144 169 153 152 166 168 169 165 149 158 120 173 171 168 151 192 207 96 98 359 61 193 254 292 247 256 225 240 263 238 225
153 162 156 149 123 84 199 197 258 173 160 164 167 160 160 175 149 155 165 173 169 173 134 152 112 175 135 104 10 189 150 124 172 161 232 242 232 224 109 218 241 237 229 256 174
161 151 148 149 114 158 215 230 210 179 162 158 159 131 143 162 153 160 171 177 170 172 98 136 106 141 143 195 178 155 181 197 127 195 168 117 256 198 213 200 200 167 123 89 108
146 186 138 143 192 219 208 188 209 175 174 173 165 154 162 164 169 167 186 174 174 164 153 105 113 143 171 136 200 207 170 184 172 204 241 105 262 143 92 99 105 116 125 128 183
194 164 156 149 233 225 249 183 205 158 165 154 157 161 167 161 159 137 176 145 173 163 158 164 130 122 129 344 165 209 187 197 130 87 189 146 258 226 175 119 134 126 132 159 174
183 174 178 167 211 248 260 200 158 174 157 165 162 149 156 163 131 163 155 164 168 176 128 94 133 144 164 135 123 169 190 197 202 132 174 219 247 220 127 155 165 171 173 205 221
240 182 87 271 204 271 250 209 154 157 115 171 167 157 166 150 149 153 144 149 168 155 148 116 126 111 133 146 159 175 180 183 200 220 206 234 237 222 215 204 200 167 171 235 270
168 163 191 253 263 266 253 209 152 133 169 182 154 166 171 165 169 161 157 162 170 166 169 169 131 108 47 134 136 174 187 194 203 214 220 237 262 115 212 201 202 228 218 218 229
125 230 245 212 285 295 313 207 150 137 186 196 168 163 177 160 137 146 146 114 164 161 156 147 120 114 149 124 103 20 203 192 212 216 214 216 239 238 240 231 237 239 236 228 224